This is the latest recevied weather packets stored in our database for station/object KF0RZX-13. If no packets are shown the sender has not sent any weather packets the latest 10 day(s).
| Time | Temp. | Humidity | Pressure | Rain* | Wind** | Luminosity | Snow |
|---|---|---|---|---|---|---|---|
| 1787829281 | 16.11° C | 88% | 1023.7 hPa | 0 mm | - | - | - |
| 1787827476 | 16.11° C | 88% | 1024 hPa | 0 mm | - | - | - |
| 1787825670 | 17.22° C | 83% | 1023.7 hPa | 0 mm | - | - | - |
| 1787823846 | 17.22° C | 88% | 1023.7 hPa | 0 mm | - | - | - |
| 1787822041 | 17.22° C | 88% | 1024 hPa | 0 mm | - | - | - |
| 1787820237 | 17.22° C | 88% | 1024 hPa | 0 mm | - | - | - |
| 1787818431 | 17.22° C | 94% | 1024.7 hPa | 0 mm | - | - | - |
| 1787816626 | 17.78° C | 88% | 1024.7 hPa | 0 mm | - | - | - |
| 1787814821 | 18.89° C | 83% | 1025.4 hPa | 0 mm | - | - | - |
| 1787813016 | 18.89° C | 83% | 1025.7 hPa | 0 mm | - | - | - |
| 1787811211 | 18.89° C | 88% | 1025.7 hPa | 0 mm | - | - | - |
| 1787809406 | 18.89° C | 83% | 1026.1 hPa | 0 mm | - | - | - |
| 1787807601 | 18.89° C | 83% | 1026.1 hPa | 0 mm | - | - | - |
| 1787805796 | 18.89° C | 83% | 1026.1 hPa | 0 mm | - | - | - |
| 1787803991 | 20° C | 78% | 1026.1 hPa | 0 mm | - | - | - |
| 1787802186 | 21.11° C | 69% | 1025.7 hPa | 0 mm | - | - | - |
| 1787800381 | 22.22° C | 65% | 1025.4 hPa | 0 mm | - | - | - |
| 1787798576 | 22.78° C | 61% | 1025.7 hPa | 0 mm | - | - | - |
| 1787796771 | 22.22° C | 69% | 1024.4 hPa | 0 mm | - | - | - |
| 1787794966 | 22.78° C | 65% | 1023.7 hPa | 0 mm | - | - | - |
| 1787793161 | 23.89° C | 61% | 1024.7 hPa | 0 mm | - | - | - |
| 1787791356 | 25° C | 54% | 1024.7 hPa | 0 mm | - | - | - |
| 1787789551 | 26.11° C | 51% | 1024.7 hPa | 0 mm | - | - | - |
| 1787787746 | 26.11° C | 48% | 1024.4 hPa | 0 mm | - | - | - |
| 1787785941 | 27.22° C | 39% | 1024.4 hPa | 0 mm | - | - | - |
* Rain latest hour (hover to see other rain measurements)
** Current wind speed in m/s (hover to see current wind gust speed)